Location: Columbia
(38.9520°N, 92.3340°W)
Time: 01:54:40
(UTC-05:00)

Daily predictions for brighter satellites

Satellite Brightness Start Highest point End
(mag) Time Altitude Azimuth Time Altitude Azimuth Time Altitude Azimuth
Cosmos 1340 4.3 00:09:24 34° NNW 00:09:24 34° NNW 00:11:53 10° N
Meteor 2-1 Rocket 4.3 00:03:45 10° N 00:09:37 65° E 00:09:47 65° E
S3M 4.3 00:03:37 10° N 00:09:39 50° E 00:10:04 49° E
NOSS 3-2 (C) 3.3 00:11:28 75° SE 00:11:36 76° ESE 00:18:11 10° NE
Cosmos 2221 3.3 00:08:07 10° N 00:11:18 48° N 00:11:18 48° N
Cosmos 1470 4.3 00:09:32 10° NNW 00:11:59 32° NW 00:11:59 32° NW
H-2A R/B 3.8 00:16:38 20° W 00:16:59 20° W 00:20:38 10° NW
Meteor 1-16 Rocket 4.1 00:13:53 10° N 00:19:34 88° W 00:19:34 88° W
Cosmos 1655 Rocket 3.9 00:20:20 74° SSW 00:20:54 83° W 00:27:13 10° N
Timation 2 Rocket 4.1 00:23:48 66° ESE 00:24:04 66° ESE 00:30:50 10° NNE
Cosmos 2278 3.9 00:22:32 10° NNW 00:28:08 60° ENE 00:28:13 60° ENE
CZ-4C R/B 2.3 00:30:35 67° WNW 00:30:52 68° NW 00:36:48 10° NNE
Atlas Centaur 2 4.4 00:28:39 10° WSW 00:31:50 22° WSW 00:31:50 22° WSW
Cosmos 2026 Rocket 4.2 00:37:00 55° WSW 00:37:34 58° W 00:43:33 10° N
Cosmos 468 Rocket 4.2 00:32:45 10° NNW 00:37:21 68° NNW 00:37:21 68° NNW
Cosmos 1697 Rocket 4.1 00:38:59 10° N 00:43:52 28° ENE 00:45:14 26° E
Cosmos 2228 Rocket 4.1 00:39:58 10° N 00:43:03 44° N 00:43:03 44° N
Cosmos 2082 Rocket 2.8 00:45:38 47° ENE 00:45:38 47° ENE 00:50:10 10° NNE
Cosmos 1814 Rocket 4.2 00:41:25 10° NNW 00:46:01 67° NW 00:46:01 67° NW
Cosmos 1833 Rocket 3.5 00:50:36 39° ENE 00:50:36 39° ENE 00:54:51 10° NE
NOSS 3-2 (A) 4.3 00:52:41 34° W 00:54:56 47° NW 01:01:21 10° NNE
Helios 1A Rocket 4.3 00:56:57 10° NNE 00:59:26 36° N 00:59:26 36° N
Cosmos 1486 Rocket 4.5 01:03:00 53° NW 01:03:00 53° NW 01:07:48 10° N
ALOS 2 3.9 01:05:18 35° NW 01:05:18 35° NW 01:08:06 10° NNW
Lacrosse 5 3.3 01:02:06 10° NNW 01:06:40 33° NE 01:08:18 27° ENE
Cosmos 1656 4.0 01:01:46 10° NNW 01:07:24 56° ENE 01:07:36 56° ENE
Cosmos 883 Rocket 4.4 01:08:48 10° N 01:15:11 83° E 01:15:26 81° SE
Cosmos 1763 Rocket 3.8 01:10:33 10° NNW 01:15:03 64° NNW 01:15:03 64° NNW
CZ-4B R/B 4.1 01:18:11 18° NW 01:18:11 18° NW 01:19:22 10° NNW
Cosmos 1818 4.4 01:13:49 10° NW 01:17:44 41° WNW 01:17:44 41° WNW
Meteor 2-20 Rocket 4.3 01:19:29 88° SSE 01:19:34 89° E 01:25:46 10° N
Cosmos 1151 Rocket 4.3 01:15:51 10° N 01:18:43 38° NNE 01:18:43 38° NNE
CZ-2C R/B 2.8 01:15:18 10° NNE 01:20:21 67° ENE 01:20:21 67° ENE
Nadezhda 2 Rocket 4.4 01:22:51 74° ESE 01:23:04 75° E 01:29:22 10° N
Cosmos 2322 Rocket 4.3 01:35:17 10° N 01:39:26 21° NE 01:43:33 10° ESE
Aureole 1 Rocket 3.6 01:45:45 10° NNW 01:50:42 80° ENE 01:50:43 80° ENE
CENTAUR R/B 2.3 01:50:52 79° SW 01:51:17 88° WNW 01:58:07 10° NNE
Cosmos 2315 Rocket 3.9 01:45:07 10° N 01:51:25 73° W 01:51:39 72° WSW
Cosmos 1745 Rocket 4.4 01:54:49 48° ESE 01:55:45 52° E 02:01:53 10° NNE
ISS -0.1 01:54:41 10° NNW 01:56:34 14° NNE 01:58:27 10° NE
Cosmos 968 Rocket 4.2 01:59:41 43° E 01:59:41 43° E 02:04:09 10° NNE
Cosmos 332 Rocket 4.2 01:57:28 10° N 02:01:59 58° NE 02:01:59 58° NE
USA 32 4.1 01:57:43 10° N 02:02:36 74° NW 02:02:36 74° NW
Cosmos 1980 Rocket 2.1 02:02:50 10° NNW 02:08:30 83° ENE 02:08:46 80° ESE
ERS-2 4.4 02:06:51 10° NE 02:08:48 20° ENE 02:08:48 20° ENE
ASTEX 1 3.5 02:05:23 10° N 02:09:56 74° NNW 02:09:56 74° NNW
Cosmos 2344 4.3 02:06:43 29° WSW 02:10:31 48° NW 02:19:06 10° NNE
Meteor 1-11 4.1 02:13:06 77° SSE 02:13:28 82° E 02:19:19 10° N
Meteor 2-11 Rocket 4.3 02:08:21 10° N 02:14:30 75° W 02:14:58 71° SW
Cosmos 1300 4.1 02:13:32 10° N 02:15:57 37° N 02:15:57 37° N
CZ-2C R/B 3.5 02:21:10 53° W 02:21:10 53° W 02:26:28 10° NNW
Lacrosse 5 rocket 2.8 02:18:34 10° NNW 02:22:39 38° NE 02:25:31 18° E
CZ-3 Stage 3 4.2 01:54:06 10° WSW 02:24:47 49° S 02:29:49 10° ESE
Cosmos 1697 Rocket 3.5 02:22:39 10° NW 02:26:56 37° W 02:26:56 37° W
Cosmos 2082 Rocket 3.9 02:27:27 20° WNW 02:29:04 22° NW 02:33:28 10° N
PSLV R/B 3.7 02:26:15 10° NNE 02:30:25 74° NNE 02:30:25 74° NNE
Cosmos 1538 Rocket 4.0 02:26:11 10° NNW 02:31:25 76° ENE 02:32:03 66° SE
Cosmos 2058 4.1 02:34:30 34° NW 02:34:30 34° NW 02:37:28 10° N
Cosmos 1833 Rocket 4.1 02:32:16 24° W 02:33:37 26° WNW 02:38:19 10° N
Cosmos 1726 3.5 02:32:07 10° NNW 02:34:22 35° NNW 02:34:22 35° NNW
ATLAS 5 CENTAUR R/B 2.8 02:37:19 34° ESE 02:37:21 34° ESE 02:41:56 10° NE
Cosmos 1777 Rocket 4.0 02:41:52 64° SE 02:42:25 69° ESE 02:47:40 10° NNE
Cosmos 1455 3.3 02:40:52 10° N 02:44:24 37° ENE 02:44:25 37° E
Cosmos 1633 Rocket 3.6 02:46:01 48° NW 02:46:01 48° NW 02:49:51 10° N
Cosmos 773 Rocket 4.4 02:40:31 10° N 02:45:35 56° ENE 02:47:30 35° SE
Resurs 1-4 Rocket 4.5 02:43:09 10° ENE 02:45:55 14° E 02:48:41 10° ESE
Lacrosse 5 3.2 02:44:56 10° NW 02:47:25 26° WNW 02:47:25 26° WNW
Cosmos 2242 Rocket 4.0 02:46:40 10° NNW 02:50:21 52° WNW 02:50:21 52° WNW
IRS-P3 4.0 02:46:11 10° NNE 02:51:33 84° ESE 02:52:27 63° S
Cosmos 371 Rocket 3.3 02:47:53 10° NNW 02:52:28 66° W 02:52:28 66° W
CBERS-1 4.2 02:50:52 10° NNE 02:55:57 63° ESE 02:57:01 50° SSE
Cosmos 1626 2.7 02:56:33 55° ENE 02:56:33 55° ENE 02:59:54 10° NNE
Cosmos 2360 4.3 02:54:54 10° NNW 03:00:25 52° WSW 03:00:40 51° WSW
ARIANE 5 R/B 4.0 02:58:45 10° NE 03:03:04 28° E 03:05:28 19° SE
Cosmos 1470 Rocket 3.6 03:06:49 62° W 03:06:52 63° W 03:11:16 10° N
OAO 3 Rocket 3.7 03:08:11 41° SE 03:08:11 41° SE 03:11:34 10° ESE
Cosmos 2181 Rocket 4.2 03:01:48 10° N 03:07:58 70° E 03:11:26 28° SSE
USA 215 3.2 03:02:17 10° NE 03:08:51 87° SE 03:11:25 41° SW
Cosmos 1933 Rocket 3.7 03:11:10 57° W 03:11:15 57° W 03:15:36 10° N
SL-16 R/B 2.1 03:07:25 10° NNW 03:13:06 78° WSW 03:15:18 39° S
ADEOS 3.6 03:14:58 10° NNE 03:20:13 76° ESE 03:22:03 41° S
AQUA 3.8 03:18:50 10° N 03:23:35 68° WNW 03:24:37 51° SW
Cosmos 2322 Rocket 2.2 03:18:22 10° NNW 03:23:53 58° WSW 03:25:26 43° SSW
Cosmos 1869 3.1 03:23:26 10° NNW 03:27:24 70° W 03:27:40 67° SW
ISS -3.1 03:30:16 10° NW 03:33:31 67° NE 03:36:45 10° ESE
USA 161 3.0 03:34:44 28° N 03:34:44 28° N 03:36:02 10° N
Cosmos 2074 Rocket 4.4 03:29:54 21° SSE 03:34:01 61° E 03:40:10 10° NNE
Cosmos 1271 Rocket 3.7 03:30:36 10° NNW 03:33:22 31° WNW 03:33:22 31° WNW
SEDSat Delta rocket 4.4 03:35:04 35° SW 03:36:37 39° S 03:42:50 10° SE
Cosmos 2112 Rocket 3.9 03:33:32 10° NNW 03:38:45 89° WSW 03:42:37 18° SSE
CZ-2D R/B 3.0 03:35:12 10° NNE 03:40:15 45° E 03:44:01 17° SSE
Cosmos 2184 Rocket 4.3 03:36:51 21° S 03:41:16 68° E 03:47:34 10° NNE
CENTAUR R/B 4.5 03:38:19 10° W 03:43:03 21° NW 03:48:10 10° NNE
ERS-2 3.8 03:40:39 10° NNW 03:43:31 21° WNW 03:43:39 21° WNW
Meteor 1-4 Rocket 4.1 03:40:59 10° NW 03:43:29 24° WNW 03:43:29 24° WNW
EO 1 Del DPAF 3.6 03:44:32 21° SSE 03:47:00 67° ENE 03:50:53 10° N
Cosmos 1862 Rocket 4.5 03:43:59 10° NNW 03:47:55 31° W 03:48:14 30° W
SL-16 R/B 2.9 03:41:52 10° SSE 03:48:04 69° ENE 03:54:18 10° N
Cosmos 1980 Rocket 4.2 03:49:48 10° WNW 03:50:30 11° W 03:50:30 11° W
Cosmos 2360 Rocket 2.2 03:47:36 10° NNW 03:53:16 87° ENE 03:58:54 10° SSE
Okean O Rocket 3.5 03:50:52 10° NE 03:54:32 25° E 03:58:09 10° SSE
SL-08 R/B 4.3 03:57:21 27° WSW 03:58:00 28° W 04:02:11 10° NW
Lacrosse 5 rocket 2.5 03:58:01 10° WNW 04:01:02 27° WSW 04:01:02 27° WSW
Cosmos 1933 3.5 04:00:25 10° NNW 04:04:19 49° W 04:05:48 32° SSW
ATLAS CENTAUR R/B 2.3 04:04:29 10° NNW 04:09:04 54° NE 04:13:16 10° SE
Cosmos 2219 3.2 04:07:10 23° SSW 04:10:55 88° WNW 04:16:43 10° NNE
USA 229 DEB 3.7 04:07:20 22° SSW 04:12:05 89° WNW 04:19:07 10° NNE
USA 229 3.7 04:07:26 22° SSW 04:12:11 90° WSW 04:19:13 10° NNE
Cosmos 1869 Rocket 3.9 04:10:27 28° SW 04:12:27 49° W 04:16:46 10° N
ATLAS 2A CENTAUR R/B 4.2 04:07:38 21° SSW 04:13:19 43° SSE 04:55:30 10° E
Cosmos 2322 3.7 04:07:51 10° NNW 04:13:32 65° WSW 04:19:11 10° S
Cosmos 2298 Rocket 4.1 04:11:20 23° SSW 04:14:37 69° WNW 04:19:58 10° NNE
Cosmos 2221 Rocket 4.1 04:11:02 10° NNW 04:15:18 43° W 04:17:43 23° SSW
GPS 2-05 Rocket1 3.0 04:15:08 34° SW 04:16:02 45° S 04:19:17 10° ESE
Meteor 1-26 Rocket 4.1 04:11:22 10° NNW 04:16:55 77° W 04:22:24 10° S
H-2A R/B 3.8 04:13:41 18° WSW 04:18:16 55° S 04:53:34 10° ESE
Cosmos 1455 4.4 04:18:17 10° WNW 04:19:27 12° W 04:19:27 12° W
ATLAS 5 CENTAUR R/B 3.1 04:18:52 16° W 04:22:00 31° NW 04:26:41 10° NNE
CZ-2D R/B 3.7 04:19:25 10° NNE 04:23:31 64° E 04:27:15 12° S
Cosmos 1680 Rocket 4.5 04:21:03 10° NW 04:25:24 27° W 04:27:53 19° SW
BREEZE-M TANK 3.7 04:22:56 10° WNW 04:25:51 26° N 04:28:02 10° ENE
Resurs 1-4 Rocket 2.2 04:20:55 10° N 04:26:12 66° WNW 04:30:30 16° SSW
MTI 3.9 04:25:02 15° S 04:27:38 60° W 04:30:59 10° NNW
Cosmos 2297 Rocket 4.3 04:25:02 10° SSE 04:29:13 22° E 04:33:24 10° NE
MOS 1-B 4.4 04:26:11 10° N 04:31:56 66° WNW 04:37:02 13° SSW
Cosmos 1340 Rocket 4.2 04:29:43 10° SSE 04:33:29 38° E 04:37:13 10° NNE
Cosmos 2333 Rocket 4.0 04:30:05 10° N 04:35:18 35° ENE 04:40:30 10° SE
Cosmos 220 Rocket 4.1 04:34:48 12° SSW 04:38:43 75° ESE 04:43:01 10° NNE
Cosmos 1892 2.7 04:37:46 10° S 04:41:40 88° E 04:45:33 10° N
ARIANE 5 R/B 3.5 04:37:42 10° N 04:42:10 32° WNW 04:45:49 14° SW
Cosmos 1733 Rocket 3.0 04:39:10 10° S 04:43:30 88° WNW 04:47:54 10° N
COSMOS 2428 2.7 04:40:19 10° NNW 04:45:58 72° WSW 04:51:36 10° SSE
Coronas F rocket 2.8 04:43:49 10° SSE 04:46:22 36° E 04:48:56 10° NNE
PAYLOAD B 4.4 04:40:52 10° NNE 04:46:24 76° ESE 04:51:55 10° S
Thor Agena Rocket 3.7 04:43:55 10° SSE 04:49:12 85° ENE 04:54:32 10° NNW
ASTRO F (AKARI) 4.4 04:46:03 10° S 04:49:14 50° W 04:52:21 10° NNW
OAO 3 Rocket 3.8 04:46:01 10° W 04:50:10 33° SSW 04:54:23 10° SE
Iridium 4 Rocket 4.4 04:47:41 10° NNE 04:51:41 40° E 04:55:35 10° SSE
Cosmos 1898 Rocket 4.3 04:49:31 13° SW 04:53:40 36° WNW 04:58:26 10° N
Cosmos 2341 Rocket 4.0 04:49:23 10° S 04:55:41 79° W 05:02:05 10° N
CZ-2C R/B 3.7 04:52:21 10° S 04:56:47 61° W 05:01:19 10° NNW
BREEZE-M DEB (TANK) 3.3 04:47:55 11° WSW 04:58:09 73° NW 05:01:27 10° NE
Cosmos 1937 Rocket 4.0 04:53:34 11° SW 04:58:25 46° WNW 05:03:31 10° N
UNKNOWN OBJECT B 3.8 04:55:13 10° N 04:58:38 31° WNW 05:02:04 10° SW
SL-23 DEB 4.2 04:55:32 10° NW 04:58:52 69° NE 05:03:49 10° ESE
Cosmos 1125 Rocket 4.3 04:53:52 10° S 04:58:58 52° ESE 05:04:07 10° NNE
Cosmos 389 Rocket 2.9 04:55:52 10° NNW 04:59:24 44° W 05:02:54 10° SSW
Cosmos 2237 Rocket 3.4 04:55:05 10° NNW 05:00:35 49° ENE 05:06:05 10° SE
Cosmos 292 Rocket 3.9 04:56:04 10° NNW 05:00:44 53° WSW 05:05:22 10° S
IRS-1C Rocket 4.3 04:55:42 10° N 05:00:52 57° WNW 05:06:01 10° SSW
NOSS 0 Rocket 4.3 04:58:03 10° NNW 05:04:12 72° ENE 05:10:19 10° SSE
AVUM R/B 2.7 05:03:06 12° SW 05:04:51 42° WNW 05:06:54 10° NNE
Nadezhda 3 Rocket 4.1 04:59:57 10° NNW 05:05:57 56° W 05:11:56 10° SSW
Sich 1 Rocket 3.5 05:02:02 10° S 05:06:24 82° W 05:10:48 10° N
SME Rocket 4.1 05:00:24 10° S 05:06:52 45° WSW 05:11:23 10° NNW
Cosmos 2154 Rocket 4.4 05:03:21 10° SSW 05:09:27 49° WNW 05:15:36 10° N
ISS -1.3 05:08:25 10° WSW 05:09:33 11° SW 05:10:40 10° SSW
Cosmos 1378 Rocket 4.3 05:06:12 10° N 05:10:37 59° E 05:14:59 10° SSE
SL-8 Rocket 4.2 05:06:03 10° S 05:12:14 82° E 05:18:32 10° N
Cosmos 2219 Rocket 2.2 05:08:50 10° NNW 05:14:27 85° WSW 05:20:02 10° SSE
Cosmos 1975 Rocket 4.4 05:13:26 10° N 05:17:46 46° E 05:22:04 10° SSE
Cosmos 2366 rocket 4.5 05:12:18 10° S 05:18:24 65° E 05:24:29 10° NNE
Cosmos 1295 Rocket 4.5 05:13:15 10° SSW 05:19:20 74° W 05:25:33 10° N
CZ-2D R/B 3.5 05:16:03 10° NNW 05:20:00 22° WNW 05:24:00 10° WSW
Cosmos 1908 Rocket 3.6 05:15:37 10° S 05:20:01 78° W 05:24:26 10° N
Okean 3 4.4 05:16:05 10° N 05:20:13 52° E 05:24:20 10° SSE
